Location: Smithsonian NASM Public Observatory
(38.8879°N, 77.0185°W)
Time: 05:15:29
(UTC-05:00)

Daily predictions for brighter satellites

Satellite Brightness Start Highest point End
(mag) Time Altitude Azimuth Time Altitude Azimuth Time Altitude Azimuth
SL-16 R/B 4.4 03:35:20 22° E 03:35:20 22° E 03:38:57 10° NE
USA 215 3.9 03:47:26 10° NE 03:53:24 48° ESE 03:53:24 48° ESE
Cosmos 2237 Rocket 4.4 04:10:24 14° NNE 04:10:24 14° NNE 04:11:14 10° NNE
CENTAUR R/B 3.1 04:11:32 51° NE 04:11:32 51° NE 04:16:30 10° NE
Centaur D-1AR AC-39 4.5 04:15:18 15° S 04:15:18 15° S 04:16:23 10° SSE
Thor Agena Rocket 4.3 04:36:27 10° SSE 04:39:44 42° S 04:39:44 42° S
Lacrosse 5 4.3 04:47:56 10° SSE 04:51:42 21° ESE 04:55:28 10° ENE
Cosmos 2333 Rocket 4.3 04:56:53 13° N 04:56:53 13° N 04:57:39 10° N
Meteor 1-14 Rocket 4.0 04:48:37 10° SSW 04:54:18 79° W 04:59:55 10° N
Cosmos 2297 3.5 04:54:45 64° NNW 04:55:40 85° WSW 05:01:20 10° SSE
COSMO-SKYMED 1 3.9 04:51:53 10° SE 04:55:53 38° ENE 04:59:03 15° N
Cosmos 921 Rocket 4.3 04:55:07 24° NNE 04:57:20 40° ENE 05:01:36 10° SE
DELTA 2 R/B (1) 3.7 05:01:35 53° SW 05:02:05 55° SSW 05:07:29 10° SE
Celestis-02/Orion 38 4.4 05:06:25 10° SSE 05:11:33 77° WSW 05:13:26 41° NW
Cosmos 2278 Rocket 3.7 05:14:01 21° SW 05:14:01 21° SW 05:16:22 10° SSW
Cosmos 2074 Rocket 4.0 05:05:31 10° S 05:11:48 86° E 05:18:06 10° N
Okean 1 4.0 05:09:30 21° N 05:12:02 55° E 05:15:58 10° SSE
Cosmos 923 Rocket 4.4 05:13:21 43° NW 05:13:21 43° NW 05:17:33 10° N
USA 32 4.0 05:08:52 10° N 05:14:07 84° E 05:19:21 10° S
Meteor 1-25 Rocket 4.2 05:11:48 10° SSW 05:17:38 76° W 05:23:28 10° N
SL-16 R/B 2.3 05:17:23 43° W 05:18:26 48° WNW 05:23:55 10° NNE
Ariane Rocket 3.7 05:16:37 10° NNE 05:21:36 56° E 05:26:33 10° S
Cosmos 1300 Rocket 4.4 05:17:38 10° S 05:21:56 51° E 05:26:13 10° NNE
CRYOSAT 2 4.4 05:18:59 10° S 05:23:50 82° E 05:28:45 10° N
Cosmos 2184 Rocket 3.8 05:19:19 10° S 05:25:28 77° W 05:31:41 10° N
Cosmos 292 Rocket 3.8 05:23:40 27° SW 05:26:05 52° WNW 05:30:49 10° N
Cosmos 1812 2.6 05:28:27 54° WNW 05:28:53 59° W 05:32:40 10° S
Cosmos 1346 Rocket 2.8 05:28:50 18° N 05:31:43 79° E 05:35:37 10° SSE
GPS 2-05 Rocket1 3.4 05:32:52 40° SW 05:33:41 49° S 05:37:11 10° ESE
Iridium 2 3.7 05:30:31 10° SSW 05:34:12 51° W 05:35:36 32° NNW
USA 215 3.5 05:30:26 10° NE 05:36:41 50° NW 05:40:47 22° W
CZ-4 R/B 3.6 05:36:52 10° NE 05:40:16 27° E 05:43:36 10° SSE
Cosmos 2154 Rocket 4.2 05:34:36 10° S 05:40:46 73° E 05:46:58 10° N
Cosmos 1680 Rocket 4.0 05:38:54 24° WSW 05:41:06 34° WNW 05:45:51 10° N
SL-08 ROCKET BODY 4.4 05:35:22 10° SSW 05:41:12 53° W 05:46:59 10° N
SKYMED 2 3.6 05:39:36 10° S 05:43:53 60° W 05:47:41 13° NNW
Cosmos 2151 Rocket 4.1 05:40:38 10° SSW 05:44:49 37° WNW 05:49:01 10° N
Radarsat Rocket 4.5 05:43:32 10° N 05:50:25 64° WNW 05:58:11 10° SSW
Cosmos 2237 Rocket 4.1 05:52:17 11° NNW 05:52:17 11° NNW 05:52:58 10° NNW
Meteor 1-28 Rocket 3.1 05:50:15 10° S 05:54:01 86° WSW 05:57:51 10° NNW
CSL-04 DEB 4.4 05:50:56 10° N 05:54:55 61° WNW 05:59:00 10° SSW
Cosmos 1536 3.4 05:51:23 10° S 05:55:17 58° E 05:59:14 10° NNE
CZ-3 R/B 3.4 05:49:31 10° SW 05:56:35 20° S 05:59:58 10° SE
Cosmos 1633 2.4 05:53:09 10° S 05:56:48 84° W 06:00:28 10° N
Meteor 2-4 Rocket 4.3 05:55:04 10° N 06:00:29 59° ENE 06:06:02 10° SSE
CENTAUR R/B 3.7 05:58:46 19° WNW 06:01:17 23° NW 06:06:42 10° NNE
Abrixas rocket 3.1 05:59:06 10° SW 06:02:22 50° SE 06:05:38 10° ENE
Tiangong 2 1.8 06:05:56 22° WNW 06:07:29 39° N 06:10:29 10° ENE
Helios 1B rocket 3.8 06:05:10 10° SE 06:09:04 41° ENE 06:12:58 10° N
Cosmos 1536 Rocket 4.5 06:06:16 12° NW 06:09:37 27° W 06:13:19 10° SSW
CSL-04 Debris 4.1 06:05:11 10° N 06:10:38 76° WNW 06:16:06 10° SSW
CSL-04 Rocket 3.7 06:05:25 10° N 06:10:56 65° WNW 06:16:22 10° SSW
Gbstr 26 Del rocket 4.4 06:08:43 16° W 06:10:56 22° SW 06:14:08 10° S
CZ-2C R/B 3.4 06:06:17 10° NNE 06:11:22 53° E 06:16:18 10° S
Cosmos 1603 4.0 06:10:28 10° SW 06:15:53 44° WNW 06:21:19 10° N
YAOGAN 1 3.6 06:12:43 10° NNE 06:16:58 51° E 06:21:10 10° S
Cosmos 2369 Rocket 2.5 06:14:38 10° NNW 06:20:22 71° ENE 06:26:02 10° SSE
Cosmos 44 3.8 06:17:54 10° SSW 06:23:16 75° ESE 06:28:31 10° NE
SMAP 3.5 06:20:08 10° NNE 06:24:47 69° ESE 06:29:25 10° S
Okean 1 Rocket 3.6 06:23:27 10° SW 06:27:29 35° WNW 06:31:32 10° N
Cosmos 1025 Rocket 3.0 06:23:07 10° N 06:27:31 81° W 06:31:52 10° S
COSMO-SKYMED 1 4.1 06:29:18 10° SW 06:32:10 17° W 06:35:03 10° NW
PSLV R/B 3.2 06:29:19 11° WNW 06:32:37 88° SSW 06:35:58 10° ESE
Cosmos 1544 Rocket 4.1 06:29:03 10° S 06:33:20 64° E 06:37:40 10° NNE
Lacrosse 5 1.9 06:29:13 10° SW 06:34:16 60° NW 06:39:20 10° NE
PAYLOAD A 4.2 06:30:07 10° N 06:35:24 62° WNW 06:40:45 10° SSW
Kosmos-1675 3.9 06:33:21 10° SW 06:36:03 59° NW 06:46:00 10° NNE
GRACE-2 3.9 06:33:45 10° N 06:36:31 59° W 06:39:14 10° SSW
Okean 1-7 Rocket 4.1 06:32:30 10° NNW 06:36:35 38° W 06:40:38 10° SSW
GRACE-1 3.9 06:34:11 10° N 06:36:56 57° W 06:39:39 10° SSW
Nadezhda 3 Rocket 4.4 06:32:28 10° NNW 06:38:26 43° W 06:44:22 10° SSW
SPOT 3 Rocket 3.6 06:33:30 10° NNE 06:38:41 88° ESE 06:43:49 10° SSW
CORIOLIS 4.3 06:36:10 10° NNE 06:41:33 81° ESE 06:46:53 10° SSW
Cosmos 1943 3.3 06:37:34 10° SW 06:43:06 58° WNW 06:48:41 10° NNE
Cosmos 2056 Rocket 4.3 06:39:02 10° NW 06:43:29 30° W 06:47:54 10° SSW
MOS 1 4.3 06:41:59 10° NNE 06:47:39 79° WNW 06:53:17 10° SSW
USA 229 DEB 3.9 06:41:54 10° SSW 06:48:47 84° ESE 06:55:47 10° NE
USA 229 3.9 06:42:02 10° SSW 06:48:54 84° ESE 06:55:53 10° NE
